• In Österreich
  • Länderverzeichnis
  • Für 7 Tage
  • Wassertemperatur
  • Satellitenkarten
  • Wetterkarte
  • News
  • Widgets
  • user-avatar
    Anmelden

    Stündliche Wetter Zhejiang

    Heute, 21 Juni, Donnerstag

    Zeit Temperatur Niederschläge Wind Luftdruck Luftfeuchtigkeit
    00:00 +23°C° 0 mm 1 m/S 754 mmHg 95%
    01:00 +22°C° 0 mm 1 m/S 753 mmHg 95%
    02:00 +22°C° 0 mm 1 m/S 753 mmHg 96%
    03:00 +22°C° 0 mm 1 m/S 753 mmHg 96%
    04:00 +22°C° 0 mm 1 m/S 753 mmHg 96%
    05:00 +22°C° 0 mm 1 m/S 754 mmHg 96%
    06:00 +23°C° 0 mm 1 m/S 754 mmHg 93%
    07:00 +24°C° 0 mm 1 m/S 754 mmHg 89%
    08:00 +25°C° 0 mm 2 m/S 755 mmHg 85%
    09:00 +26°C° 0 mm 2 m/S 755 mmHg 79%
    10:00 +28°C° 0 mm 2 m/S 754 mmHg 73%
    11:00 +29°C° 0 mm 2 m/S 754 mmHg 67%
    12:00 +29°C° 0 mm 3 m/S 754 mmHg 64%
    13:00 +30°C° 0 mm 3 m/S 754 mmHg 62%
    14:00 +30°C° 0 mm 3 m/S 754 mmHg 59%
    15:00 +30°C° 0 mm 3 m/S 754 mmHg 60%
    16:00 +30°C° 0 mm 3 m/S 753 mmHg 61%
    17:00 +29°C° 0 mm 3 m/S 753 mmHg 62%
    18:00 +28°C° 0 mm 3 m/S 753 mmHg 68%
    19:00 +26°C° 0 mm 3 m/S 754 mmHg 73%
    20:00 +24°C° 0 mm 3 m/S 754 mmHg 78%
    21:00 +24°C° 0 mm 2 m/S 754 mmHg 79%
    22:00 +24°C° 0 mm 2 m/S 754 mmHg 81%
    23:00 +23°C° 0 mm 2 m/S 754 mmHg 82%

    Morgen, 22 Juni, Freitag

    Zeit Temperatur Niederschläge Wind Luftdruck Luftfeuchtigkeit
    00:00 +23°C° 0 mm 2 m/S 754 mmHg 83%
    01:00 +23°C° 0 mm 2 m/S 754 mmHg 83%
    02:00 +23°C° 0 mm 1 m/S 754 mmHg 83%
    03:00 +23°C° 0,3 mm 1 m/S 754 mmHg 85%
    04:00 +23°C° 0,3 mm 1 m/S 754 mmHg 87%
    05:00 +23°C° 0,3 mm 1 m/S 754 mmHg 89%
    06:00 +23°C° 1,6 mm 1 m/S 754 mmHg 90%
    07:00 +23°C° 1,6 mm 2 m/S 754 mmHg 92%
    08:00 +23°C° 1,6 mm 2 m/S 754 mmHg 93%
    09:00 +23°C° 2,9 mm 2 m/S 754 mmHg 94%
    10:00 +21°C° 2,9 mm 2 m/S 754 mmHg 94%
    11:00 +21°C° 2,9 mm 2 m/S 754 mmHg 95%
    12:00 +23°C° 2 mm 2 m/S 754 mmHg 93%
    13:00 +23°C° 2 mm 2 m/S 753 mmHg 91%
    14:00 +22°C° 2 mm 3 m/S 753 mmHg 90%
    15:00 +22°C° 0,9 mm 3 m/S 753 mmHg 90%
    16:00 +24°C° 0,9 mm 3 m/S 752 mmHg 90%
    17:00 +24°C° 0,9 mm 3 m/S 752 mmHg 90%
    18:00 +23°C° 0,2 mm 2 m/S 752 mmHg 91%
    19:00 +23°C° 0,2 mm 2 m/S 752 mmHg 92%
    20:00 +23°C° 0,2 mm 2 m/S 753 mmHg 93%
    21:00 +23°C° 0,1 mm 2 m/S 753 mmHg 94%
    22:00 +23°C° 0,1 mm 2 m/S 753 mmHg 94%
    23:00 +23°C° 0,1 mm 1 m/S 753 mmHg 94%

    übermorgen, 23 Juni, Samstag

    Zeit Temperatur Niederschläge Wind Luftdruck Luftfeuchtigkeit
    00:00 +23°C° 0,1 mm 1 m/S 752 mmHg 95%
    01:00 +23°C° 0,1 mm 1 m/S 752 mmHg 95%
    02:00 +23°C° 0,1 mm 1 m/S 751 mmHg 96%
    03:00 +23°C° 0,7 mm 1 m/S 751 mmHg 96%
    04:00 +23°C° 0,7 mm 1 m/S 751 mmHg 96%
    05:00 +21°C° 0,7 mm 0 m/S 751 mmHg 96%
    06:00 +24°C° 0,6 mm 1 m/S 751 mmHg 93%
    07:00 +25°C° 0,6 mm 1 m/S 752 mmHg 90%
    08:00 +26°C° 0,6 mm 1 m/S 752 mmHg 87%
    09:00 +27°C° 0,4 mm 1 m/S 752 mmHg 83%
    10:00 +29°C° 0,4 mm 1 m/S 752 mmHg 79%
    11:00 +31°C° 0,4 mm 1 m/S 752 mmHg 75%
    12:00 +31°C° 0,3 mm 1 m/S 751 mmHg 74%
    13:00 +31°C° 0,3 mm 2 m/S 751 mmHg 73%
    14:00 +32°C° 0,3 mm 2 m/S 750 mmHg 72%
    15:00 +31°C° 0,6 mm 3 m/S 750 mmHg 75%
    16:00 +31°C° 0,6 mm 3 m/S 750 mmHg 77%
    17:00 +30°C° 0,6 mm 3 m/S 750 mmHg 80%
    18:00 +29°C° 0,1 mm 3 m/S 750 mmHg 84%
    19:00 +27°C° 0,1 mm 3 m/S 751 mmHg 88%
    20:00 +26°C° 0,1 mm 2 m/S 751 mmHg 92%
    21:00 +26°C° 0 mm 2 m/S 751 mmHg 93%
    22:00 +25°C° 0 mm 2 m/S 751 mmHg 94%
    23:00 +25°C° 0 mm 1 m/S 752 mmHg 95%

    24 Juni, Sonntag

    Zeit Temperatur Niederschläge Wind Luftdruck Luftfeuchtigkeit
    00:00 +25°C° 0 mm 1 m/S 751 mmHg 95%
    01:00 +25°C° 0 mm 1 m/S 751 mmHg 95%
    02:00 +25°C° 0 mm 1 m/S 751 mmHg 94%
    03:00 +25°C° 0 mm 1 m/S 751 mmHg 95%
    04:00 +25°C° 0 mm 1 m/S 751 mmHg 95%
    05:00 +25°C° 0 mm 1 m/S 751 mmHg 96%
    06:00 +26°C° 0,2 mm 1 m/S 752 mmHg 93%
    07:00 +27°C° 0,2 mm 1 m/S 752 mmHg 90%
    08:00 +28°C° 0,2 mm 1 m/S 752 mmHg 88%
    09:00 +29°C° 0,3 mm 1 m/S 752 mmHg 84%
    10:00 +30°C° 0,3 mm 1 m/S 752 mmHg 80%
    11:00 +31°C° 0,3 mm 1 m/S 752 mmHg 77%
    12:00 +31°C° 0,8 mm 2 m/S 752 mmHg 76%
    13:00 +32°C° 0,8 mm 2 m/S 751 mmHg 74%
    14:00 +34°C° 0,8 mm 3 m/S 751 mmHg 73%
    15:00 +33°C° 0,7 mm 3 m/S 751 mmHg 75%
    16:00 +33°C° 0,7 mm 3 m/S 751 mmHg 77%
    17:00 +31°C° 0,7 mm 3 m/S 751 mmHg 79%
    18:00 +30°C° 0,5 mm 3 m/S 751 mmHg 83%
    19:00 +28°C° 0,5 mm 2 m/S 752 mmHg 87%
    20:00 +27°C° 0,5 mm 2 m/S 752 mmHg 91%
    21:00 +27°C° 0 mm 2 m/S 752 mmHg 92%
    22:00 +27°C° 0 mm 1 m/S 752 mmHg 93%
    23:00 +26°C° 0 mm 1 m/S 753 mmHg 94%

    25 Juni, Montag

    Zeit Temperatur Niederschläge Wind Luftdruck Luftfeuchtigkeit
    00:00 +26°C° 0 mm 1 m/S 752 mmHg 94%
    01:00 +26°C° 0 mm 1 m/S 752 mmHg 95%
    02:00 +26°C° 0 mm 1 m/S 752 mmHg 95%
    03:00 +26°C° 0,1 mm 1 m/S 752 mmHg 95%
    04:00 +26°C° 0,1 mm 1 m/S 752 mmHg 95%
    05:00 +26°C° 0,1 mm 1 m/S 752 mmHg 96%
    06:00 +27°C° 0,1 mm 1 m/S 752 mmHg 92%
    07:00 +28°C° 0,1 mm 1 m/S 752 mmHg 88%
    08:00 +29°C° 0,1 mm 1 m/S 753 mmHg 85%
    09:00 +30°C° 1,4 mm 1 m/S 753 mmHg 81%
    10:00 +32°C° 1,4 mm 1 m/S 753 mmHg 78%
    11:00 +33°C° 1,4 mm 1 m/S 752 mmHg 75%
    12:00 +33°C° 2,2 mm 1 m/S 752 mmHg 73%
    13:00 +33°C° 2,2 mm 1 m/S 752 mmHg 71%
    14:00 +34°C° 2,2 mm 1 m/S 751 mmHg 68%
    15:00 +34°C° 0,1 mm 2 m/S 751 mmHg 70%
    16:00 +34°C° 0,1 mm 2 m/S 751 mmHg 71%
    17:00 +34°C° 0,1 mm 2 m/S 751 mmHg 72%
    18:00 +32°C° 0,4 mm 2 m/S 751 mmHg 77%
    19:00 +30°C° 0,4 mm 2 m/S 751 mmHg 81%
    20:00 +29°C° 0,4 mm 1 m/S 752 mmHg 85%
    21:00 +29°C° 0,1 mm 1 m/S 752 mmHg 86%
    22:00 +28°C° 0,1 mm 1 m/S 752 mmHg 87%
    23:00 +28°C° 0,1 mm 1 m/S 752 mmHg 88%

    26 Juni, Dienstag

    Zeit Temperatur Niederschläge Wind Luftdruck Luftfeuchtigkeit
    00:00 +28°C° 0 mm 1 m/S 752 mmHg 88%
    01:00 +28°C° 0 mm 1 m/S 752 mmHg 88%
    02:00 +28°C° 0 mm 1 m/S 751 mmHg 88%
    03:00 +28°C° 0 mm 1 m/S 752 mmHg 88%
    04:00 +27°C° 0 mm 1 m/S 752 mmHg 89%
    05:00 +27°C° 0 mm 1 m/S 752 mmHg 89%
    06:00 +28°C° 0,2 mm 1 m/S 752 mmHg 88%
    07:00 +28°C° 0,2 mm 1 m/S 753 mmHg 88%
    08:00 +28°C° 0,2 mm 1 m/S 753 mmHg 87%
    09:00 +30°C° 0,1 mm 2 m/S 753 mmHg 80%
    10:00 +32°C° 0,1 mm 2 m/S 753 mmHg 73%
    11:00 +34°C° 0,1 mm 3 m/S 753 mmHg 65%
    12:00 +32°C° 0,5 mm 2 m/S 753 mmHg 70%
    13:00 +32°C° 0,5 mm 2 m/S 752 mmHg 75%
    14:00 +31°C° 0,5 mm 1 m/S 752 mmHg 80%
    15:00 +31°C° 0,4 mm 1 m/S 752 mmHg 81%
    16:00 +30°C° 0,4 mm 1 m/S 752 mmHg 83%
    17:00 +30°C° 0,4 mm 1 m/S 752 mmHg 84%
    18:00 +30°C° 0,4 mm 1 m/S 752 mmHg 85%
    19:00 +29°C° 0,4 mm 1 m/S 752 mmHg 86%
    20:00 +29°C° 0,4 mm 1 m/S 752 mmHg 87%
    21:00 +28°C° 0,1 mm 1 m/S 752 mmHg 88%
    22:00 +28°C° 0,1 mm 1 m/S 752 mmHg 88%
    23:00 +28°C° 0,1 mm 2 m/S 752 mmHg 89%
    Mehr zeigen